Other Surface Observations
Issued by NWS Upton, NY

Home | Current Version | Previous Version | Text Only | Print | Product List | Glossary On
Versions: 1 2 3 4 5 6 7 8 9 10 11 12 13 14 15 16 17 18 19 20 21 22 23 24 25 26 27 28 29 30 31 32 33 34 35 36 37 38 39 40 41 42 43 44 45 46 47 48 49 50
000
SXUS51 KOKX 182157
OSOOKX
New York City Metropolitan Area Weather Roundup
National Weather Service New York NY
500 PM EST SUN FEB 18 2018

CITY           SKY/WX    TMP DP  RH WIND       PRES   REMARKS
Central Park   FAIR      43  23  45 NW8       30.42R
LaGuardia Arpt MOCLDY    44  23  43 NW10      30.40R
Kennedy Intl   MOCLDY    43  25  49 NW15      30.41R
Newark Liberty MOCLDY    44  24  45 NW10      30.41R
Teterboro Arpt FAIR      44  23  43 NW13      30.40R
Bronx Bot Gard   N/A     43  23  45 W3        30.41R
Bronx Lehman C   N/A     43  23  45 W6          N/A
Queens College   N/A     43  25  49 NW6         N/A
Breezy Point     N/A     43 N/A N/A NW9         N/A
Brooklyn Coll    N/A     45  25  45 NW8         N/A
Staten Island    N/A     45  25  45 N6          N/A

>>>>>>>>>>>>>>>>>>>>>>>>>>>>>>>>> KEY <<<<<<<<<<<<<<<<<<<<<<<<<<<<<<<
> SKY/WX - Sky Condition/Present    : R : WCI - Wind Chill Index    <
>          Weather                  : E : VSB - Visibility in Miles <
> TMP    - Temperature in Deg F     : M : HX  - Heat Index          <
> DP     - Dew Point Temperature    : A : TC  - Temperature in      <
> RH     - Relative Humidity        : R :       Celsius             <
> WIND   - Direction/Speed (mph)    : K : VRB - Variable Wind Dir   <
> PRES   - Pressure (in Hg)         : S :                           <
>>>>>>>>>>>>>>>>>>>>>>>>>>>>>>>>> KEY <<<<<<<<<<<<<<<<<<<<<<<<<<<<<<<



USA.gov is the U.S. government's official web portal to all federal, state and local government web resources and services.